Location: Cruquius
(52.3348°N, 4.6319°E)
Time: 09:02:37
(UTC+00:00)

Akebono - Pass Details

Date: 12 May 2021
Orbit: 255 x 2887 km, 75.0° (Epoch: 15 June)

Event Time Altitude Azimuth Distance (km) Brightness Sun altitude
Rises 20:09:18 0° 336° (NNW) 2,271 9.8 -6.1°
Reaches altitude 10° 20:11:31 10° 337° (NNW) 1,226 8.3 -6.4°
Maximum altitude 20:13:58 88° 54° (NE) 277 3.8 -6.7°
Drops below altitude 10° 20:16:03 10° 157° (SSE) 1,042 6.2 -6.9°
Enters shadow 20:16:14 - 157° (SSE) 1,125 6.4 -6.9°
